TimeMST,TemperatureF,Dew PointF,Humidity,Sea Level PressureIn,VisibilityMPH,Wind Direction,Wind SpeedMPH,Gust SpeedMPH,PrecipitationIn,Events,Conditions,WindDirDegrees,DateUTC
12:53 AM,19.9,12.9,74,30.50,10.0,SSE,8.1,-,N/A,,Clear,150,2014-01-25 07:53:00
1:53 AM,19.0,10.9,71,30.49,10.0,SE,9.2,-,N/A,,Clear,140,2014-01-25 08:53:00
2:53 AM,21.0,12.0,68,30.47,10.0,SE,8.1,-,N/A,,Clear,140,2014-01-25 09:53:00
3:53 AM,19.0,10.9,71,30.46,10.0,SSE,5.8,-,N/A,,Clear,160,2014-01-25 10:53:00
4:53 AM,17.1,10.9,77,30.46,10.0,SSE,5.8,-,N/A,,Clear,160,2014-01-25 11:53:00
5:53 AM,18.0,10.0,71,30.47,10.0,South,5.8,-,N/A,,Clear,170,2014-01-25 12:53:00
6:53 AM,17.1,10.0,74,30.48,10.0,South,6.9,-,N/A,,Clear,170,2014-01-25 13:53:00
7:53 AM,18.0,10.0,71,30.49,10.0,South,5.8,-,N/A,,Clear,170,2014-01-25 14:53:00
8:53 AM,23.0,12.9,65,30.48,10.0,SSE,3.5,-,N/A,,Clear,160,2014-01-25 15:53:00
9:53 AM,28.9,12.0,49,30.45,10.0,Calm,Calm,-,N/A,,Clear,0,2014-01-25 16:53:00
10:53 AM,33.1,14.0,46,30.42,10.0,WNW,3.5,-,N/A,,Clear,290,2014-01-25 17:53:00
11:53 AM,35.1,14.0,42,30.37,10.0,Calm,Calm,-,N/A,,Clear,0,2014-01-25 18:53:00
12:53 PM,37.9,14.0,38,30.32,10.0,Calm,Calm,-,N/A,,Clear,0,2014-01-25 19:53:00
1:53 PM,41.0,12.9,32,30.27,10.0,Calm,Calm,-,N/A,,Clear,0,2014-01-25 20:53:00
2:53 PM,41.0,14.0,33,30.25,10.0,NW,3.5,-,N/A,,Clear,310,2014-01-25 21:53:00
3:53 PM,43.0,14.0,31,30.24,10.0,NNE,3.5,-,N/A,,Clear,20,2014-01-25 22:53:00
4:53 PM,39.9,16.0,38,30.25,10.0,NE,4.6,-,N/A,,Clear,40,2014-01-25 23:53:00
5:53 PM,35.1,15.1,44,30.26,10.0,NW,3.5,-,N/A,,Clear,320,2014-01-26 00:53:00
6:53 PM,26.1,18.0,71,30.30,10.0,Calm,Calm,-,N/A,,Clear,0,2014-01-26 01:53:00
7:53 PM,25.0,18.0,75,30.30,10.0,SE,4.6,-,N/A,,Clear,140,2014-01-26 02:53:00
8:53 PM,25.0,19.0,78,30.28,10.0,Calm,Calm,-,N/A,,Clear,0,2014-01-26 03:53:00
9:53 PM,21.9,17.1,82,30.27,7.0,SE,5.8,-,N/A,,Clear,140,2014-01-26 04:53:00
10:53 PM,21.0,16.0,81,30.25,10.0,SE,6.9,-,N/A,,Clear,140,2014-01-26 05:53:00
11:53 PM,21.9,15.1,75,30.22,10.0,SE,4.6,-,N/A,,Clear,130,2014-01-26 06:53:00